Location: *
(45.9500°N, 9.0833°E)
Time: 21:24:51
(UTC+00:00)

Ariane Rocket - Pass Details

Date: 03 March 2021
Orbit: 759 x 771 km, 98.7° (Epoch: 21 April)

Event Time Altitude Azimuth Distance (km) Brightness Sun altitude
Exits shadow 18:42:03 24° 119° (ESE) 1,551 4.0 -16.2°
Maximum altitude 18:44:31 40° 67° (ENE) 1,136 3.5 -16.6°
Drops below altitude 10° 18:49:15 10° 360° (N) 2,323 5.6 -17.5°
Sets 18:51:41 0° 353° (N) 3,253 6.5 -17.9°
